Simultaneous Nadir Overpasses (SNOs) Predictions

Prediction of SNOs between GOES-15 and TERRA Satellite Orbit:

Table of predicted SNOs for the next 14.0 days since TLE Epoch: 1/30/2016
Index Date Time (GOES-15) GOES-15 Lat,Lon TERRA Lat,Lon Distance(km) Time Diff (sec)
1 01/30/2016 07:22:30 -0.04,-135.23 0.35,-133.42 206.33 80
2 01/30/2016 19:43:45 0.05,-135.21 0.77,-138.57 381.52 80
3 02/01/2016 19:31:34 0.04,-135.25 0.10,-135.62 41.94 80
4 02/03/2016 19:22:02 0.04,-135.27 -0.53,-132.66 297.15 80
5 02/04/2016 07:43:26 -0.05,-135.30 -0.58,-137.85 289.55 80
6 02/06/2016 07:28:34 -0.04,-135.32 0.05,-134.90 48.47 80
7 02/08/2016 07:16:22 -0.04,-135.33 0.68,-131.94 385.97 80
8 02/08/2016 19:37:37 0.05,-135.30 0.44,-137.09 203.18 80
9 02/10/2016 19:28:05 0.05,-135.31 -0.20,-134.13 133.71 80
10 02/11/2016 07:49:28 -0.05,-135.34 -0.90,-139.33 453.02 80
11 02/12/2016 19:15:53 0.05,-135.31 -0.85,-131.18 470.01 80




NCC Satellite Simultaneous Nadir Overpasses (SNOs) Prediction Service
